Weather Service Report


084 
ASUS43 KLOT 290008
RWRIL 

ILLINOIS REGIONAL WEATHER ROUNDUP
NATIONAL WEATHER SERVICE CHICAGO/ROMEOVILLE IL
700 PM CDT TUE JUN 28 2016

NOTE: "FAIR" INDICATES FEW OR NO CLOUDS BELOW 12,000 FEET WITH NO
SIGNIFICANT WEATHER AND/OR OBSTRUCTIONS TO VISIBILITY.

* THESE STATIONS ARE NOT UNDER NWS QUALITY CONTROL. THEY ALSO MAY NOT
  REPORT WEATHER SUCH AS PRECIPITATION OR FOG.

ILZ001-002-007-009-015-016-024-290100-
NORTHWEST ILLINOIS
  
CITY           SKY/WX    TMP DP  RH WIND       PRES   REMARKS
MOLINE         PTSUNNY   72  55  55 NE10      30.14R                  
6HR MIN TEMP:  72; 6HR MAX TEMP:  77;                                

STERLING*      PTSUNNY   69  54  58 NW3       30.15F                  
SAVANNA*       CLOUDY    70  55  60 NW7       30.15F                  
$$

ILZ003-004-008-010-011-017-018-290100-
NORTH CENTRAL ILLINOIS
  
CITY           SKY/WX    TMP DP  RH WIND       PRES   REMARKS
ROCKFORD       MOSUNNY   74  50  42 N10       30.15F                  
6HR MIN TEMP:  67; 6HR MAX TEMP:  75;                                

FREEPORT*      PTSUNNY   68  54  61 NW3       30.17F                  
ROCHELLE*      PTSUNNY   69  54  58 CALM      30.14F                  
DE KALB*       MOSUNNY   69  52  54 N6        30.15F                  
$$

ILZ005-006-012>014-019>023-290100-
NORTHEAST ILLINOIS
  
CITY           SKY/WX    TMP DP  RH WIND       PRES   REMARKS
CHICAGO-OHARE  MOSUNNY   67  50  54 NE12      30.14R                  
6HR MIN TEMP:  66; 6HR MAX TEMP:  71;                                

CHICAGO-MIDWAY MOSUNNY   68  47  46 NE9       30.14S                  
6HR MIN TEMP:  67; 6HR MAX TEMP:  71;                                

AURORA         SUNNY     71  50  47 NE6       30.14F                  
6HR MIN TEMP:  68; 6HR MAX TEMP:  72;                                

LANSING*       SUNNY     66  47  50 N13G18    30.15S                  
JOLIET*        SUNNY     70  43  37 E10G16    30.14S                  
WAUKEGAN       MOSUNNY   65  51  60 NE7       30.14S                  
6HR MIN TEMP:  65; 6HR MAX TEMP:  69;                                

DUPAGE AIRPORT SUNNY     71  42  35 N6        30.13F                  
6HR MIN TEMP:  66; 6HR MAX TEMP:  72;                                

KANKAKEE*      SUNNY     67  44  43 NE13G20   30.14S                  
WHEELING       SUNNY     65  52  62 E9        30.16S                  
6HR MIN TEMP:  64; 6HR MAX TEMP:  69;                                

MORRIS*        SUNNY     70  51  50 CALM      30.12F                  
ROMEOVILLE*    SUNNY     68  36  30 E10       30.14S                  
NORTHERLY ISL    N/A     64  51  62 N10         N/A                   
$$

LMZ740>746-290100-
SOUTHERN LAKE MICHIGAN
  
STATION/POSITION SKY/WX   TEMP    WIND        PRES    VSBY  WAVE
                          AIR SEA DIR/SP/G                  HT/PER
                          (F)     (DEG/KT/KT) (MB)    (MI)  (FT/S)
SOUTHERN BUOY              62 62  360/ 16/ 17 1019.7S         4/ 6
WILMETTE HARBOR            65 68   50/ 10/ 14   N/A           5/ 7
HARRISON CRIB              64      10/ 13/ 14   N/A
BURNHAM HARBOR             65      10/  7/ 11   N/A
CALUMET HARBOR             64                 1020.4F
BURNS HARBOR               64      20/ 15/ 21 1021.3F
MICHIGAN CITY              63     350/ 22/ 25   N/A
MICHIGAN CITY 6N           65 70   10/ 16/ 21   N/A           7/ 6
ST. JOSEPH                 63 68  360/ 14/ 17   N/A           7/ 7
$$

ILZ025>027-034>036-040-047-049-050-058-095>099-290100-
WEST-CENTRAL ILLINOIS
  
CITY           SKY/WX    TMP DP  RH WIND       PRES   REMARKS
QUINCY         SUNNY     78  57  48 NE10      30.09F                  
GALESBURG*     MOSUNNY   72  57  60 N12       30.13S                  
MACOMB*        SUNNY     73  56  54 NE8       30.14S                  
JACKSONVILLE*  SUNNY     77  59  53 N9        30.09S                  
PITTSFIELD*    SUNNY     79  59  49 N6        30.11S HX  80           
$$

ILZ028>032-037-038-041>044-048-051>054-059>061-290100-
CENTRAL ILLINOIS
  
CITY           SKY/WX    TMP DP  RH WIND       PRES   REMARKS
PONTIAC        MOSUNNY   72  58  61 N9        30.13F                  
BLOOMINGTON    MOSUNNY   72  57  59 NE15      30.12S                  
DECATUR        MOSUNNY   76  57  51 N14       30.09S                  
PEORIA         SUNNY     73  56  54 N7        30.12S                  
6HR MIN TEMP:  73; 6HR MAX TEMP:  78;                                

LACON*         SUNNY     70  53  55 N5        30.12F                  
LINCOLN*       SUNNY     76  58  55 N8        30.10S                  
SPRINGFIELD    SUNNY     78  58  49 N12       30.09F                  
6HR MIN TEMP:  78; 6HR MAX TEMP:  84;                                

TAYLORVILLE    MOSUNNY   76  60  56 N15       30.08F                  
6HR MIN TEMP:  75; 6HR MAX TEMP:  81;                                

$$

ILZ033-039-045-046-055>057-062-063-290100-
EAST-CENTRAL ILLINOIS
  
CITY           SKY/WX    TMP DP  RH WIND       PRES   REMARKS
CHAMPAIGN      SUNNY     74  58  57 N16       30.09F                  
RANTOUL*       MOSUNNY   74  59  59 NE13      30.11S                  
MATTOON        MOSUNNY   76  58  53 NE10      30.07S                  
PARIS*         SUNNY     73  60  62 N3        30.09S                  
$$

ILZ079-100>102-290100-
SOUTHWEST ILLINOIS
  
CITY           SKY/WX    TMP DP  RH WIND       PRES   REMARKS
ALTON          MOSUNNY   79  59  50 NW6       30.07S HX  80           
BELLEVILLE     SUNNY     84  57  40 VRB6      30.04S HX  83           
CAHOKIA*       MOSUNNY   85  56  37 N9        30.05S HX  84           
SPARTA*        SUNNY     83  61  47 N6        30.06S HX  83           
$$

ILZ064>066-069>071-074>076-080>082-084>086-088>090-092>094-290100-
SOUTH-CENTRAL ILLINOIS
  
CITY           SKY/WX    TMP DP  RH WIND       PRES   REMARKS
CARBONDALE     SUNNY     85  61  44 N13       30.03S HX  85           
6HR MIN TEMP:  85; 6HR MAX TEMP:  90;                                

CAIRO*         SUNNY     83  72  67 W5        30.01F HX  88           
EFFINGHAM*     SUNNY     79  61  54 N7G16     30.08S HX  80           
MARION         SUNNY     86  63  45 NW6       30.03F HX  87           
MT. VERNON     MOSUNNY   82  61  47 N7        30.05R HX  83           
CENTRALIA*     SUNNY     83  62  49 N10       30.04S HX  84           
SALEM*         SUNNY     81  59  47 N8        30.06R HX  82           
METROPOLIS*    SUNNY     86  66  51 NW7       30.02R HX  88           
$$

ILZ067-068-072-073-078-083-087-091-290100-
SOUTHEAST ILLINOIS
  
CITY           SKY/WX    TMP DP  RH WIND       PRES   REMARKS
LAWRENCEVILLE  SUNNY     79  62  56 N13       30.04S HX  80           
FLORA*           N/A     83  62  49 N12       30.05R HX  83           
FAIRFIELD*     MOSUNNY   81  62  53 N8        30.03S HX  82           
HARRISBURG*      N/A     84  65  52 MISG      30.02S HX  86           
ROBINSON*      SUNNY     77  61  57 N6        30.07S                  
CARMI*         SUNNY     81  64  57 N10       30.02R HX  82           
$$

ABBREVIATIONS USED IN REMARKS
   TC - TEMPERATURE IN CELSIUS
  WCI - WIND CHILL INDEX
   HX - HEAT INDEX
  VSB - VISIBILITY
$$

  

Return to Home page


Western Regional Climate Center, wrcc@dri.edu